Back to catalog

SL-16 DEB

AliveLEO
NORAD 29097·DEBRIS·🇷🇺 Russia

Launched Mar 26, 1993 from Baikonur Cosmodrome

Loading…

Next Passes (next 24 hours)

TLE

FreshSource: Space-Track

Epoch: Sep 12, 2026, 13:57 UTC

1 29097U 93016AL  26255.58180772  .00000057  00000-0  71205-4 0  9995
2 29097  71.0087 357.8750 0123507 116.1686 258.4722 13.94627140286333

Track SL-16 DEB in real time with AllMySat

Download on the App Store